�������l�o���
Date,Time,MP-1(��Sv/h),MP-2(��Sv/h),MP-3(��Sv/h),MP-4(��Sv/h),MP-5(��Sv/h),MP-6(��Sv/h),MP-7(��Sv/h),MP-8(��Sv/h),����,����(m/s),���J
2023/09/08,00:00,0.521,0.792,0.486,0.973,0.687,0.316,0.570,0.529,���k��,4.8,��
2023/09/08,00:10,0.520,0.787,0.486,0.970,0.687,0.318,0.570,0.530,���k��,5.2,��
2023/09/08,00:20,0.521,0.789,0.486,0.973,0.688,0.319,0.572,0.530,���k��,4.2,��
2023/09/08,00:30,0.522,0.790,0.487,0.973,0.688,0.317,0.572,0.529,���k��,5.1,��
2023/09/08,00:40,0.521,0.787,0.487,0.972,0.686,0.318,0.571,0.529,���k��,6.0,��
2023/09/08,00:50,0.522,0.790,0.486,0.973,0.687,0.317,0.571,0.529,�k��,5.2,��
2023/09/08,01:00,0.521,0.789,0.487,0.974,0.688,0.318,0.571,0.530,�k��,7.4,��
2023/09/08,01:10,0.521,0.790,0.487,0.971,0.687,0.319,0.572,0.529,�k��,7.4,��
2023/09/08,01:20,0.521,0.788,0.487,0.970,0.687,0.318,0.572,0.529,�k��,7.8,��
2023/09/08,01:30,0.519,0.789,0.486,0.972,0.687,0.317,0.572,0.530,�k��,7.7,��
2023/09/08,01:40,0.520,0.789,0.486,0.973,0.686,0.318,0.571,0.530,�k��,8.4,��
2023/09/08,01:50,0.520,0.787,0.487,0.974,0.688,0.317,0.572,0.529,�k��,7.9,��
2023/09/08,02:00,0.519,0.790,0.485,0.971,0.688,0.319,0.571,0.529,�k��,8.0,��
2023/09/08,02:10,0.522,0.789,0.488,0.972,0.688,0.318,0.571,0.529,�k��,7.6,��
2023/09/08,02:20,0.519,0.791,0.486,0.972,0.688,0.318,0.572,0.530,���k��,8.2,��
2023/09/08,02:30,0.520,0.789,0.486,0.971,0.688,0.319,0.572,0.529,�k��,7.6,��
2023/09/08,02:40,0.521,0.789,0.486,0.972,0.688,0.317,0.572,0.530,�k��,6.3,��
2023/09/08,02:50,0.520,0.788,0.487,0.971,0.689,0.318,0.571,0.529,�k��,7.1,��
2023/09/08,03:00,0.522,0.790,0.487,0.973,0.689,0.318,0.570,0.529,���k��,6.5,��
2023/09/08,03:10,0.521,0.788,0.485,0.973,0.687,0.318,0.571,0.530,�k��,7.7,��
2023/09/08,03:20,0.521,0.790,0.486,0.973,0.687,0.319,0.570,0.529,�k��,8.0,��
2023/09/08,03:30,0.522,0.789,0.486,0.972,0.688,0.318,0.571,0.528,���k��,7.9,��
2023/09/08,03:40,0.523,0.790,0.485,0.971,0.689,0.318,0.571,0.532,���k��,8.5,��
2023/09/08,03:50,0.521,0.789,0.486,0.974,0.689,0.319,0.571,0.531,���k��,7.5,��
2023/09/08,04:00,0.521,0.789,0.486,0.974,0.689,0.318,0.571,0.530,���k��,7.9,��
2023/09/08,04:10,0.521,0.790,0.486,0.976,0.687,0.318,0.571,0.530,�k��,8.2,��
2023/09/08,04:20,0.521,0.790,0.485,0.975,0.687,0.318,0.570,0.530,���k��,7.6,��
2023/09/08,04:30,0.520,0.789,0.488,0.973,0.688,0.320,0.571,0.530,�k��,6.3,��
2023/09/08,04:40,0.521,0.790,0.484,0.975,0.688,0.317,0.572,0.531,�k��,7.1,��
2023/09/08,04:50,0.520,0.790,0.484,0.974,0.689,0.318,0.572,0.532,�k��,6.7,��
2023/09/08,05:00,0.522,0.790,0.487,0.974,0.688,0.317,0.571,0.530,�k��,6.5,��
2023/09/08,05:10,0.520,0.790,0.487,0.974,0.688,0.317,0.571,0.530,�k��,6.5,��
2023/09/08,05:20,0.520,0.789,0.486,0.973,0.690,0.318,0.572,0.529,�k��,6.2,��
2023/09/08,05:30,0.522,0.791,0.486,0.974,0.691,0.317,0.572,0.529,�k��,5.2,��
2023/09/08,05:40,0.520,0.792,0.484,0.972,0.690,0.317,0.573,0.530,�k��,5.5,��
2023/09/08,05:50,0.521,0.793,0.486,0.974,0.687,0.318,0.570,0.529,�k��,4.6,��
2023/09/08,06:00,0.521,0.791,0.486,0.974,0.690,0.319,0.572,0.531,�k��,4.8,��
2023/09/08,06:10,0.521,0.791,0.488,0.974,0.690,0.317,0.571,0.530,�k�k��,4.9,��
2023/09/08,06:20,0.521,0.791,0.486,0.973,0.690,0.319,0.572,0.530,�k��,5.1,��
2023/09/08,06:30,0.521,0.791,0.485,0.976,0.690,0.319,0.572,0.530,�k��,4.7,��
2023/09/08,06:40,0.521,0.793,0.486,0.976,0.689,0.319,0.571,0.531,�k��,4.4,��
2023/09/08,06:50,0.521,0.793,0.486,0.973,0.689,0.318,0.571,0.529,�k��,3.3,��
2023/09/08,07:00,0.521,0.789,0.488,0.975,0.690,0.317,0.573,0.529,�k�k��,3.7,��
2023/09/08,07:10,0.523,0.792,0.487,0.974,0.690,0.319,0.573,0.530,�k��,3.0,��
2023/09/08,07:20,0.521,0.793,0.488,0.975,0.689,0.317,0.571,0.529,�k��,3.7,��
2023/09/08,07:30,0.520,0.793,0.486,0.975,0.689,0.318,0.573,0.530,�k�k��,2.5,��
2023/09/08,07:40,0.522,0.793,0.488,0.975,0.691,0.318,0.572,0.530,�k,3.3,��
2023/09/08,07:50,0.520,0.792,0.488,0.973,0.691,0.318,0.572,0.530,�k,3.5,��
2023/09/08,08:00,0.523,0.791,0.487,0.974,0.691,0.317,0.572,0.529,�k�k��,3.1,��
2023/09/08,08:10,0.522,0.792,0.486,0.973,0.691,0.318,0.571,0.531,�k,2.6,��
2023/09/08,08:20,0.522,0.790,0.488,0.975,0.691,0.317,0.573,0.531,�k,2.5,��
2023/09/08,08:30,0.522,0.791,0.488,0.975,0.688,0.318,0.572,0.530,�k�k��,1.9,��
2023/09/08,08:40,0.523,0.793,0.486,0.976,0.690,0.319,0.571,0.530,�k�k��,2.6,��
2023/09/08,08:50,0.523,0.791,0.488,0.974,0.690,0.318,0.573,0.531,�k�k��,3.4,��
2023/09/08,09:00,0.523,0.790,0.487,0.975,0.690,0.317,0.572,0.529,�k�k��,2.9,��
2023/09/08,09:10,0.522,0.790,0.486,0.974,0.690,0.317,0.572,0.529,�k,3.1,��
2023/09/08,09:20,0.523,0.790,0.488,0.976,0.687,0.316,0.573,0.529,�k�k��,4.0,��
2023/09/08,09:30,0.522,0.792,0.488,0.976,0.690,0.317,0.571,0.530,�k��,2.9,��
2023/09/08,09:40,0.522,0.791,0.488,0.976,0.690,0.318,0.571,0.531,�k�k��,4.1,��
2023/09/08,09:50,0.523,0.791,0.487,0.975,0.690,0.317,0.571,0.530,�k�k��,4.8,��
2023/09/08,10:00,0.522,0.792,0.486,0.975,0.693,0.318,0.570,0.531,�k�k��,4.7,�L
2023/09/08,10:10,0.522,0.791,0.486,0.974,0.691,0.318,0.571,0.531,�k��,5.4,�L
2023/09/08,10:20,0.522,0.791,0.486,0.975,0.690,0.319,0.571,0.531,�k��,4.6,�L
2023/09/08,10:30,0.522,0.790,0.486,0.974,0.690,0.318,0.570,0.529,�k�k��,4.6,�L
2023/09/08,10:40,0.522,0.790,0.486,0.975,0.689,0.317,0.571,0.529,�k�k��,4.4,�L
2023/09/08,10:50,0.522,0.789,0.486,0.977,0.690,0.317,0.571,0.530,�k�k��,4.7,�L
2023/09/08,11:00,0.519,0.789,0.486,0.975,0.689,0.317,0.571,0.528,�k�k��,4.6,�L
2023/09/08,11:10,0.522,0.790,0.486,0.976,0.689,0.317,0.569,0.529,�k�k��,4.3,�L
2023/09/08,11:20,0.521,0.789,0.485,0.976,0.689,0.318,0.570,0.529,�k�k��,4.9,�L
2023/09/08,11:30,0.521,0.789,0.486,0.974,0.688,0.317,0.568,0.528,�k�k��,6.1,�L
2023/09/08,11:40,0.520,0.786,0.485,0.975,0.689,0.317,0.569,0.528,�k�k��,5.9,�L
2023/09/08,11:50,0.521,0.788,0.485,0.976,0.686,0.318,0.569,0.528,�k�k��,6.6,�L
2023/09/08,12:00,0.520,0.787,0.485,0.973,0.688,0.318,0.569,0.527,�k�k��,7.5,�L
2023/09/08,12:10,0.520,0.787,0.485,0.974,0.689,0.317,0.569,0.528,�k�k��,6.7,�L
2023/09/08,12:20,0.520,0.789,0.484,0.974,0.688,0.315,0.568,0.526,�k�k��,6.1,�L
2023/09/08,12:30,0.521,0.786,0.482,0.974,0.686,0.317,0.568,0.527,�k�k��,6.5,�L
2023/09/08,12:40,0.520,0.786,0.486,0.973,0.688,0.317,0.569,0.528,�k�k��,6.2,�L
2023/09/08,12:50,0.519,0.787,0.485,0.975,0.688,0.316,0.570,0.529,�k�k��,5.9,�L
2023/09/08,13:00,0.520,0.788,0.486,0.974,0.688,0.317,0.567,0.528,�k,6.5,�L
2023/09/08,13:10,0.521,0.784,0.484,0.974,0.688,0.316,0.568,0.527,�k�k��,7.1,�L
2023/09/08,13:20,0.522,0.784,0.484,0.972,0.688,0.316,0.570,0.526,�k�k��,7.2,�L
2023/09/08,13:30,0.521,0.784,0.484,0.971,0.688,0.316,0.567,0.527,�k�k��,6.8,�L
2023/09/08,13:40,0.519,0.784,0.484,0.973,0.687,0.316,0.569,0.528,�k�k��,7.2,�L
2023/09/08,13:50,0.520,0.787,0.485,0.973,0.689,0.318,0.568,0.526,�k�k��,7.4,�L
2023/09/08,14:00,0.520,0.786,0.484,0.972,0.687,0.316,0.569,0.526,�k�k��,6.3,�L
2023/09/08,14:10,0.519,0.787,0.486,0.974,0.687,0.316,0.567,0.526,�k�k��,7.3,�L
2023/09/08,14:20,0.521,0.785,0.485,0.974,0.688,0.316,0.567,0.527,�k�k��,7.5,�L
2023/09/08,14:30,0.520,0.783,0.484,0.974,0.689,0.316,0.567,0.527,�k��,7.4,�L
2023/09/08,14:40,0.520,0.785,0.483,0.974,0.686,0.318,0.567,0.524,���k��,8.5,�L
2023/09/08,14:50,0.518,0.781,0.482,0.972,0.685,0.316,0.566,0.527,���k��,7.5,�L
2023/09/08,15:00,0.522,0.781,0.480,0.972,0.680,0.316,0.567,0.527,���k��,6.7,�L
2023/09/08,15:10,0.520,0.780,0.479,0.969,0.681,0.317,0.565,0.526,���k��,4.7,�L
2023/09/08,15:20,0.515,0.766,0.476,0.965,0.673,0.313,0.563,0.524,��,6.4,�L
2023/09/08,15:30,0.505,0.754,0.471,0.947,0.660,0.311,0.556,0.519,���쓌,14.7,�L
2023/09/08,15:40,0.497,0.744,0.465,0.931,0.655,0.309,0.554,0.518,���쓌,5.2,�L
2023/09/08,15:50,0.503,0.745,0.469,0.931,0.656,0.313,0.554,0.518,���쓌,6.9,�L
2023/09/08,16:00,0.504,0.751,0.469,0.938,0.658,0.312,0.557,0.518,���쓌,7.1,�L
2023/09/08,16:10,0.506,0.755,0.471,0.939,0.658,0.312,0.555,0.516,���쓌,7.4,�L
2023/09/08,16:20,0.500,0.748,0.467,0.932,0.653,0.313,0.554,0.518,�쓌,11.1,�L
2023/09/08,16:30,0.503,0.754,0.470,0.936,0.657,0.312,0.557,0.519,�쓌,8.8,��
2023/09/08,16:40,0.506,0.754,0.471,0.940,0.660,0.310,0.557,0.518,�쓌,10.6,��
2023/09/08,16:50,0.507,0.757,0.471,0.939,0.660,0.313,0.558,0.518,�쓌,9.0,��
2023/09/08,17:00,0.507,0.756,0.471,0.942,0.663,0.313,0.556,0.520,�쓌,9.8,�L
2023/09/08,17:10,0.507,0.758,0.470,0.941,0.662,0.313,0.558,0.520,�쓌,10.8,�L
2023/09/08,17:20,0.507,0.758,0.469,0.943,0.662,0.311,0.557,0.519,�쓌,9.0,�L
2023/09/08,17:30,0.507,0.754,0.469,0.944,0.661,0.311,0.557,0.519,�쓌,7.6,�L
2023/09/08,17:40,0.502,0.748,0.465,0.939,0.655,0.310,0.554,0.515,�쓌,4.7,�L
2023/09/08,17:50,0.496,0.738,0.464,0.928,0.647,0.308,0.553,0.514,-,CALM,�L
2023/09/08,18:00,0.496,0.738,0.463,0.928,0.641,0.306,0.550,0.515,���쓌,9.7,�L
2023/09/08,18:10,0.498,0.743,0.464,0.929,0.647,0.309,0.554,0.517,���쓌,7.0,�L
2023/09/08,18:20,0.499,0.746,0.468,0.933,0.648,0.310,0.555,0.516,��,7.5,�L
2023/09/08,18:30,0.501,0.749,0.467,0.933,0.650,0.310,0.553,0.517,��,7.6,�L
2023/09/08,18:40,0.501,0.748,0.465,0.932,0.648,0.309,0.554,0.515,��,7.2,�L
2023/09/08,18:50,0.499,0.741,0.465,0.930,0.645,0.310,0.552,0.516,��,10.7,�L
2023/09/08,19:00,0.498,0.745,0.467,0.930,0.645,0.308,0.553,0.517,��,9.3,�L
2023/09/08,19:10,0.501,0.748,0.467,0.933,0.649,0.310,0.555,0.518,��,10.9,�L
2023/09/08,19:20,0.502,0.752,0.467,0.935,0.650,0.310,0.555,0.519,��,11.6,�L
2023/09/08,19:30,0.503,0.752,0.468,0.935,0.652,0.311,0.557,0.519,���쓌,12.2,�L
2023/09/08,19:40,0.504,0.751,0.468,0.937,0.651,0.310,0.557,0.517,��,11.9,�L
2023/09/08,19:50,0.504,0.752,0.467,0.938,0.649,0.312,0.556,0.517,-,CALM,�L
2023/09/08,20:00,0.502,0.749,0.469,0.935,0.647,0.312,0.555,0.517,��,11.9,�L
2023/09/08,20:10,0.503,0.752,0.469,0.936,0.649,0.313,0.557,0.519,��,11.0,�L
2023/09/08,20:20,0.504,0.750,0.469,0.936,0.646,0.312,0.556,0.518,-,CALM,�L
2023/09/08,20:30,0.496,0.738,0.465,0.925,0.633,0.308,0.550,0.513,-,CALM,�L
2023/09/08,20:40,0.497,0.743,0.466,0.926,0.637,0.312,0.553,0.514,���쓌,15.3,�L
2023/09/08,20:50,0.496,0.737,0.463,0.922,0.630,0.309,0.549,0.513,-,CALM,�L
2023/09/08,21:00,0.493,0.732,0.462,0.917,0.624,0.307,0.549,0.513,-,CALM,�L
2023/09/08,21:10,0.494,0.734,0.464,0.920,0.625,0.309,0.548,0.514,-,CALM,�L
2023/09/08,21:20,0.495,0.735,0.465,0.919,0.622,0.310,0.549,0.512,��,13.8,�L
2023/09/08,21:30,0.495,0.738,0.466,0.920,0.622,0.309,0.549,0.513,���쓌,14.9,�L
2023/09/08,21:40,0.494,0.731,0.463,0.917,0.614,0.309,0.549,0.512,-,CALM,�L
2023/09/08,21:50,0.490,0.728,0.462,0.914,0.607,0.308,0.545,0.511,-,CALM,�L
2023/09/08,22:00,0.496,0.736,0.465,0.919,0.610,0.311,0.550,0.511,���쓌,16.0,�L
2023/09/08,22:10,0.497,0.734,0.464,0.924,0.609,0.312,0.551,0.513,���쓌,14.7,�L
2023/09/08,22:20,0.499,0.734,0.466,0.922,0.610,0.313,0.551,0.516,���쓌,14.7,�L
2023/09/08,22:30,0.500,0.735,0.467,0.926,0.613,0.313,0.553,0.518,���쓌,13.5,�L
2023/09/08,22:40,0.500,0.738,0.466,0.930,0.616,0.314,0.555,0.518,���쓌,13.0,�L
2023/09/08,22:50,0.502,0.737,0.467,0.933,0.617,0.311,0.554,0.517,���쓌,13.6,�L
2023/09/08,23:00,0.500,0.737,0.465,0.932,0.617,0.313,0.554,0.517,���쓌,14.1,�L
2023/09/08,23:10,0.501,0.735,0.465,0.933,0.618,0.312,0.553,0.517,���쓌,15.3,�L
2023/09/08,23:20,0.497,0.731,0.463,0.930,0.616,0.311,0.552,0.517,-,CALM,�L
2023/09/08,23:30,0.491,0.726,0.461,0.925,0.610,0.309,0.550,0.511,-,CALM,�L
2023/09/08,23:40,0.483,0.709,0.453,0.905,0.591,0.301,0.542,0.505,-,CALM,�L
2023/09/08,23:50,0.481,0.705,0.449,0.900,0.577,0.291,0.539,0.502,-,CALM,�L
